Location: Baix
(44.7118°N, 4.7648°E)
Time: 14:56:59
(UTC+00:00)

A-11 Canister half - Pass Details

Date: 30 November 2020
Orbit: 1517 x 1683 km, 47.2° (Epoch: 15 January)

Event Time Altitude Azimuth Distance (km) Brightness Sun altitude
Rises 16:17:41 0° 292° (WNW) 4,908 12.3 -3.3°
Reaches altitude 10° 16:20:50 10° 290° (WNW) 3,931 11.8 -3.8°
Maximum altitude 16:30:53 71° 209° (SSW) 1,765 9.6 -5.4°
Drops below altitude 10° 16:40:55 10° 129° (SE) 3,923 10.9 -7.0°
Sets 16:44:04 0° 127° (SE) 4,897 11.3 -7.5°
